K7RCT-13 Weather Reports


Display with metric or nautical units.
time (UTC)temp
F
wind
direction
speed
MPH
gust
MPH
rain 1hr
in
rain 24hr
in
rain mn
in
humidity
%
barometer
mb
20210412191208 53 307 0.0 0.0 0.00 0.00 0.00 57 1024.5
20210412190711 53 309 0.0 0.0 0.00 0.00 0.00 58 1024.4
20210412190423 52 0 0.0 0.0 0.00 0.00 0.00 57 1024.4
20210412190142 53 355 0.0 0.0 0.00 0.00 0.00 59 1024.4
20210412185901 53 0 0.0 0.0 0.00 0.00 0.00 58 1024.4
20210412184704 53 327 0.0 0.0 0.00 0.00 0.00 59 1024.5
20210412184219 52 0 0.0 0.0 0.00 0.00 0.00 58 1024.5
20210412183708 51 0 0.0 0.0 0.00 0.00 0.00 59 1024.5
20210412183241 51 0 0.0 0.0 0.00 0.00 0.00 57 1024.6
20210412183052 52 310 0.0 0.0 0.00 0.00 0.00 59 1024.7
20210412182757 51 0 0.0 0.0 0.00 0.00 0.00 58 1024.7
20210412181720 51 3 0.0 0.0 0.00 0.00 0.00 60 1024.8
20210412181210 51 7 0.0 0.0 0.00 0.00 0.00 59 1024.8
20210412180723 51 0 0.0 0.0 0.00 0.00 0.00 62 1024.8
20210412180151 51 0 0.0 0.0 0.00 0.00 0.00 61 1024.8
20210412175922 50 49 0.0 0.0 0.00 0.00 0.00 60 1024.8
20210412174704 50 235 0.0 0.0 0.00 0.00 0.00 60 1024.9
20210412174211 49 336 0.0 0.0 0.00 0.00 0.00 64 1024.9
20210412173707 49 0 0.0 0.0 0.00 0.00 0.00 65 1024.9
20210412173206 48 17 0.0 0.0 0.00 0.00 0.00 64 1025.1
20210412173032 48 324 0.0 0.0 0.00 0.00 0.00 66 1025.1
20210412172833 48 0 0.0 0.0 0.00 0.00 0.00 65 1025.1
20210412171705 48 0 0.0 0.0 0.00 0.00 0.00 63 1025.1
20210412171219 49 0 0.0 0.0 0.00 0.00 0.00 67 1025.2
20210412170914 47 348 0.0 0.0 0.00 0.00 0.00 66 1025.2
20210412170542 47 17 0.0 1.0 0.00 0.00 0.00 65 1025.2
20210412170047 47 73 0.0 2.0 0.00 0.00 0.00 67 1025.3
20210412165714 46 357 0.0 2.0 0.00 0.00 0.00 67 1025.3
20210412164708 45 8 0.0 2.0 0.00 0.00 0.00 66 1025.3
20210412164217 46 0 0.0 0.0 0.00 0.00 0.00 68 1025.3
20210412163707 45 330 0.0 0.0 0.00 0.00 0.00 67 1025.3
20210412163227 46 302 0.0 0.0 0.00 0.00 0.00 68 1025.3
20210412162937 45 6 0.0 0.0 0.00 0.00 0.00 69 1025.3
20210412162714 45 0 0.0 0.0 0.00 0.00 0.00 72 1025.4
20210412161705 45 302 0.0 0.0 0.00 0.00 0.00 68 1025.4
20210412161218 45 310 0.0 0.0 0.00 0.00 0.00 70 1025.4
20210412160714 45 336 0.0 0.0 0.00 0.00 0.00 70 1025.4
20210412160225 45 354 0.0 0.0 0.00 0.00 0.00 70 1025.3
20210412160034 45 338 0.0 0.0 0.00 0.00 0.00 73 1025.3
20210412155806 44 0 0.0 0.0 0.00 0.00 0.00 73 1025.4
20210412154910 43 3 0.0 0.0 0.00 0.00 0.00 75 1025.4
20210412154208 42 0 0.0 0.0 0.00 0.00 0.00 75 1025.3
20210412153710 42 347 0.0 0.0 0.00 0.00 0.00 76 1025.3
20210412153233 41 357 0.0 0.0 0.00 0.00 0.00 76 1025.4
20210412152953 41 25 0.0 0.0 0.00 0.00 0.00 78 1025.4
20210412152742 40 7 0.0 0.0 0.00 0.00 0.00 78 1025.3
20210412151718 40 66 0.0 0.0 0.00 0.00 0.00 79 1025.4
20210412151219 39 58 0.0 0.0 0.00 0.00 0.00 81 1025.4
20210412150705 39 25 0.0 0.0 0.00 0.00 0.00 81 1025.4
20210412150258 38 45 0.0 0.0 0.00 0.00 0.00 83 1025.3
20210412150027 38 45 0.0 0.0 0.00 0.00 0.00 84 1025.3
20210412145839 37 63 0.0 0.0 0.00 0.00 0.00 85 1025.3
20210412144807 36 65 0.0 0.0 0.00 0.00 0.00 86 1025.3
20210412144217 36 68 0.0 0.0 0.00 0.00 0.00 87 1025.3
20210412143713 35 73 0.0 0.0 0.00 0.00 0.00 87 1025.4
20210412143306 34 73 0.0 0.0 0.00 0.00 0.00 87 1025.3
20210412143027 34 72 0.0 0.0 0.00 0.00 0.00 88 1025.3
20210412142646 33 49 0.0 0.0 0.00 0.00 0.00 88 1025.3
20210412141704 32 49 0.0 0.0 0.00 0.00 0.00 87 1025.1
20210412141210 32 49 0.0 0.0 0.00 0.00 0.00 87 1025.1
20210412140705 32 49 0.0 0.0 0.00 0.00 0.00 87 1025.1
20210412140240 32 49 0.0 0.0 0.00 0.00 0.00 87 1025.1
20210412140054 32 49 0.0 0.0 0.00 0.00 0.00 87 1025.1
20210412135726 32 49 0.0 0.0 0.00 0.00 0.00 87 1025.0
20210412134715 33 49 0.0 0.0 0.00 0.00 0.00 87 1025.0
20210412134215 33 49 0.0 0.0 0.00 0.00 0.00 87 1024.9
20210412133717 33 49 0.0 0.0 0.00 0.00 0.00 87 1025.0
20210412133213 32 49 0.0 0.0 0.00 0.00 0.00 87 1024.9
20210412132831 32 49 0.0 0.0 0.00 0.00 0.00 87 1024.9
20210412132452 33 49 0.0 0.0 0.00 0.00 0.00 87 1024.9
20210412131706 32 49 0.0 0.0 0.00 0.00 0.00 87 1024.9
20210412131209 32 49 0.0 0.0 0.00 0.00 0.00 87 1025.0
20210412130723 32 56 0.0 0.0 0.00 0.00 0.00 87 1024.9
20210412130215 32 56 0.0 0.0 0.00 0.00 0.00 87 1024.8
20210412125942 32 56 0.0 0.0 0.00 0.00 0.00 87 1024.8
20210412124708 32 56 0.0 0.0 0.00 0.00 0.00 87 1024.8
20210412124215 32 56 0.0 0.0 0.00 0.00 0.00 87 1024.8
20210412123705 32 56 0.0 0.0 0.00 0.00 0.00 87 1024.8
20210412123233 32 56 0.0 0.0 0.00 0.00 0.00 87 1024.7
20210412122833 32 56 0.0 0.0 0.00 0.00 0.00 87 1024.8
20210412121716 32 56 0.0 0.0 0.00 0.00 0.00 87 1024.7
20210412121209 32 56 0.0 0.0 0.00 0.00 0.00 87 1024.8
20210412120707 32 56 0.0 0.0 0.00 0.00 0.00 87 1024.8
20210412120218 32 56 0.0 0.0 0.00 0.00 0.00 87 1024.8
20210412115919 32 55 0.0 0.0 0.00 0.00 0.00 86 1024.8
20210412114923 32 55 0.0 0.0 0.00 0.00 0.00 86 1024.9
20210412114220 33 55 0.0 0.0 0.00 0.00 0.00 86 1024.9
20210412113708 33 55 0.0 0.0 0.00 0.00 0.00 86 1024.9
20210412113212 33 55 0.0 0.0 0.00 0.00 0.00 86 1024.8
20210412112841 33 55 0.0 0.0 0.00 0.00 0.00 86 1024.9
20210412112555 33 55 0.0 0.0 0.00 0.00 0.00 85 1024.9
20210412111709 33 55 0.0 0.0 0.00 0.00 0.00 86 1024.9
20210412111209 33 55 0.0 0.0 0.00 0.00 0.00 85 1024.9
20210412110705 33 55 0.0 0.0 0.00 0.00 0.00 85 1025.0
20210412110210 33 55 0.0 0.0 0.00 0.00 0.00 85 1025.0
20210412105940 33 55 0.0 0.0 0.00 0.00 0.00 85 1025.0
20210412105820 33 55 0.0 0.0 0.00 0.00 0.00 85 1025.0
20210412104724 33 55 0.0 0.0 0.00 0.00 0.00 84 1025.0
20210412104206 33 55 0.0 0.0 0.00 0.00 0.00 84 1025.0
20210412103704 34 55 0.0 0.0 0.00 0.00 0.00 83 1025.1
20210412103208 34 55 0.0 0.0 0.00 0.00 0.00 83 1025.1
20210412102945 34 55 0.0 0.0 0.00 0.00 0.00 82 1025.1
20210412102726 35 55 0.0 0.0 0.00 0.00 0.00 82 1025.1
20210412101719 35 55 0.0 0.0 0.00 0.00 0.00 81 1025.1
20210412101213 35 55 0.0 0.0 0.00 0.00 0.00 81 1025.1
20210412100705 35 55 0.0 0.0 0.00 0.00 0.00 81 1025.2
20210412100217 36 73 0.0 0.0 0.00 0.00 0.00 81 1025.2
20210412100042 36 75 0.0 0.0 0.00 0.00 0.00 81 1025.1
20210412095822 36 73 0.0 0.0 0.00 0.00 0.00 82 1025.2
20210412094707 36 44 0.0 0.0 0.00 0.00 0.00 83 1025.2
20210412094213 35 39 0.0 0.0 0.00 0.00 0.00 83 1025.1
20210412093710 35 39 0.0 0.0 0.00 0.00 0.00 83 1025.2
20210412093205 35 39 0.0 0.0 0.00 0.00 0.00 83 1025.1
20210412092830 35 39 0.0 0.0 0.00 0.00 0.00 83 1025.3
20210412092543 35 39 0.0 0.0 0.00 0.00 0.00 83 1025.2
20210412091704 35 21 0.0 0.0 0.00 0.00 0.00 82 1025.2
20210412091219 35 21 0.0 0.0 0.00 0.00 0.00 82 1025.4
20210412090716 36 21 0.0 0.0 0.00 0.00 0.00 81 1025.4
20210412090246 36 21 0.0 0.0 0.00 0.00 0.00 81 1025.3
20210412090031 36 21 0.0 0.0 0.00 0.00 0.00 82 1025.3
20210412085750 36 21 0.0 0.0 0.00 0.00 0.00 81 1025.3
20210412084705 36 21 0.0 0.0 0.00 0.00 0.00 81 1025.3
20210412084214 36 21 0.0 0.0 0.00 0.00 0.00 81 1025.3
20210412083704 36 21 0.0 0.0 0.00 0.00 0.00 80 1025.4
20210412083220 36 21 0.0 0.0 0.00 0.00 0.00 79 1025.4
20210412082926 37 21 0.0 0.0 0.00 0.00 0.00 78 1025.5
20210412082654 37 21 0.0 0.0 0.00 0.00 0.00 78 1025.5
20210412081705 37 21 0.0 0.0 0.00 0.00 0.00 78 1025.6
20210412081209 37 21 0.0 0.0 0.00 0.00 0.00 78 1025.5
20210412080704 37 21 0.0 0.0 0.00 0.00 0.00 79 1025.5
20210412080212 37 21 0.0 0.0 0.00 0.00 0.00 79 1025.5
20210412075848 37 21 0.0 0.0 0.00 0.00 0.00 77 1025.4
20210412075459 38 21 0.0 0.0 0.00 0.00 0.00 76 1025.6
20210412074704 38 21 0.0 0.0 0.00 0.00 0.00 77 1025.6
20210412074218 38 21 0.0 0.0 0.00 0.00 0.00 76 1025.6
20210412073706 38 21 0.0 0.0 0.00 0.00 0.00 75 1025.5
20210412073209 38 21 0.0 0.0 0.00 0.00 0.00 75 1025.5
20210412072942 39 21 0.0 0.0 0.00 0.00 0.00 75 1025.5
20210412072819 39 41 0.0 0.0 0.00 0.00 0.00 75 1025.6
20210412071720 39 41 0.0 0.0 0.00 0.00 0.00 76 1025.6
20210412071221 39 41 0.0 0.0 0.00 0.00 0.00 76 1025.6
20210412070710 39 7 0.0 0.0 0.00 0.00 0.00 76 1025.6
20210412070223 38 69 0.0 0.0 0.00 0.00 0.00 77 1025.6
20210412065836 39 69 0.0 0.0 0.00 0.00 0.00 77 1025.7
20210412065622 39 65 0.0 0.0 0.00 0.00 0.00 77 1025.7
20210412064716 38 45 0.0 0.0 0.00 0.00 0.00 78 1025.7
20210412064212 38 35 0.0 0.0 0.00 0.00 0.00 78 1025.7
20210412063715 38 45 0.0 0.0 0.00 0.00 0.00 78 1025.9
20210412063224 38 45 0.0 0.0 0.00 0.00 0.00 78 1025.8
20210412062907 38 45 0.0 0.0 0.00 0.00 0.00 77 1025.7
20210412061704 38 44 0.0 0.0 0.00 0.00 0.00 77 1025.7
20210412061220 38 48 0.0 0.0 0.00 0.00 0.00 76 1025.7
20210412060759 39 48 0.0 0.0 0.00 0.00 0.00 76 1025.7
20210412060217 39 47 0.0 0.0 0.00 0.00 0.00 75 1025.7
20210412055903 39 48 0.0 0.0 0.00 0.00 0.00 75 1025.6
20210412055532 39 48 0.0 0.0 0.00 0.00 0.00 74 1025.5
20210412054707 39 48 0.0 0.0 0.00 0.00 0.00 73 1025.5
20210412054220 39 47 0.0 0.0 0.00 0.00 0.00 74 1025.5
20210412053705 39 48 0.0 0.0 0.00 0.00 0.00 74 1025.5
20210412053222 39 47 0.0 0.0 0.00 0.00 0.00 73 1025.4
20210412052847 39 47 0.0 0.0 0.00 0.00 0.00 71 1025.3
20210412051705 40 47 0.0 0.0 0.00 0.00 0.00 71 1025.3
20210412051218 40 48 0.0 0.0 0.00 0.00 0.00 70 1025.4
20210412050705 40 47 0.0 0.0 0.00 0.00 0.00 69 1025.3
20210412050259 41 48 0.0 0.0 0.00 0.00 0.00 68 1025.2
20210412045850 41 48 0.0 0.0 0.00 0.00 0.00 67 1025.2
20210412044733 41 48 0.0 0.0 0.00 0.00 0.00 67 1025.3
20210412044211 41 48 0.0 0.0 0.00 0.00 0.00 67 1025.2
20210412043709 41 47 0.0 0.0 0.00 0.00 0.00 67 1025.1
20210412043425 42 48 0.0 0.0 0.00 0.00 0.00 66 1025.2
20210412043042 42 45 0.0 0.0 0.00 0.00 0.00 66 1025.2
20210412042749 41 24 0.0 0.0 0.00 0.00 0.00 67 1025.2
20210412041715 41 24 0.0 0.0 0.00 0.00 0.00 66 1025.1
20210412041205 41 25 0.0 0.0 0.00 0.00 0.00 65 1025.2
20210412040705 42 24 0.0 0.0 0.00 0.00 0.00 65 1025.2
20210412040208 42 17 0.0 0.0 0.00 0.00 0.00 64 1025.0
20210412035859 42 17 0.0 0.0 0.00 0.00 0.00 64 1025.1
20210412035522 42 30 0.0 0.0 0.00 0.00 0.00 64 1025.1
20210412034709 42 11 0.0 0.0 0.00 0.00 0.00 63 1025.0
20210412034216 43 0 0.0 0.0 0.00 0.00 0.00 62 1025.0
20210412033705 43 0 0.0 0.0 0.00 0.00 0.00 61 1025.1
20210412033226 43 0 0.0 0.0 0.00 0.00 0.00 61 1025.0
20210412032912 43 0 0.0 0.0 0.00 0.00 0.00 59 1025.0
20210412032542 44 0 0.0 0.0 0.00 0.00 0.00 58 1024.9
20210412031713 44 0 0.0 0.0 0.00 0.00 0.00 57 1025.0
20210412031205 44 1 0.0 0.0 0.00 0.00 0.00 56 1024.9
20210412030709 44 0 0.0 0.0 0.00 0.00 0.00 55 1024.9
20210412030213 44 0 0.0 0.0 0.00 0.00 0.00 53 1025.0
20210412025856 45 357 0.0 0.0 0.00 0.00 0.00 53 1025.0
20210412025639 45 0 0.0 0.0 0.00 0.00 0.00 52 1025.1
20210412024706 45 343 0.0 0.0 0.00 0.00 0.00 51 1025.0
20210412024217 45 0 0.0 0.0 0.00 0.00 0.00 51 1025.0
20210412023706 46 0 0.0 0.0 0.00 0.00 0.00 51 1025.0
20210412023219 46 34 0.0 0.0 0.00 0.00 0.00 50 1025.0
20210412022934 46 0 0.0 0.0 0.00 0.00 0.00 50 1025.0
20210412022744 46 347 0.0 0.0 0.00 0.00 0.00 50 1025.0
20210412021704 47 331 0.0 0.0 0.00 0.00 0.00 49 1025.0
20210412021231 47 0 0.0 0.0 0.00 0.00 0.00 49 1025.1
20210412020717 47 0 0.0 0.0 0.00 0.00 0.00 49 1025.0
20210412020205 47 18 0.0 5.0 0.00 0.00 0.00 49 1025.0
20210412015820 47 0 0.0 5.0 0.00 0.00 0.00 49 1025.0
20210412015428 48 331 0.0 5.0 0.00 0.00 0.00 48 1025.0
20210412014705 48 59 0.0 0.0 0.00 0.00 0.00 49 1025.1
20210412014206 48 11 0.0 0.0 0.00 0.00 0.00 50 1025.0
20210412013706 48 358 0.0 0.0 0.00 0.00 0.00 49 1025.0
20210412013315 49 176 0.0 0.0 0.00 0.00 0.00 49 1025.0
20210412013103 49 3 0.0 0.0 0.00 0.00 0.00 50 1025.1
20210412012648 49 13 0.0 0.0 0.00 0.00 0.00 49 1025.1
20210412011711 49 0 0.0 0.0 0.00 0.00 0.00 48 1025.2
20210412011210 49 278 0.0 0.0 0.00 0.00 0.00 49 1025.1
20210412010711 49 265 0.0 0.0 0.00 0.00 0.00 49 1025.1
20210412010214 49 330 0.0 0.0 0.00 0.00 0.00 48 1025.1
20210412004946 50 306 0.0 0.0 0.00 0.00 0.00 46 1025.2
20210412004205 50 7 0.0 0.0 0.00 0.00 0.00 48 1025.2
20210412003724 50 3 0.0 0.0 0.00 0.00 0.00 46 1025.3
20210412002955 51 337 0.0 4.0 0.00 0.00 0.00 46 1025.4
20210412001706 52 0 0.0 4.0 0.00 0.00 0.00 47 1025.3
20210412001224 51 250 0.0 4.0 0.00 0.00 0.00 48 1025.4
20210412000704 52 321 0.0 3.0 0.00 0.00 0.00 47 1025.4
20210412000217 52 0 0.0 3.0 0.00 0.00 0.00 47 1025.4
20210411235923 52 341 0.0 3.0 0.00 0.00 0.00 48 1025.5
20210411235707 51 0 0.0 3.0 0.00 0.00 0.00 48 1025.5
20210411234707 53 0 0.0 0.0 0.00 0.00 0.00 46 1025.5
20210411234219 53 0 0.0 0.0 0.00 0.00 0.00 49 1025.5
20210411233704 52 18 0.0 0.0 0.00 0.00 0.00 50 1025.6
20210411233247 53 0 0.0 0.0 0.00 0.00 0.00 46 1025.6
20210411233059 54 0 0.0 0.0 0.00 0.00 0.00 46 1025.6
20210411232841 53 210 0.0 0.0 0.00 0.00 0.00 48 1025.5
20210411231709 53 0 0.0 0.0 0.00 0.00 0.00 47 1025.5
20210411231236 53 199 0.0 2.0 0.00 0.00 0.00 46 1025.5
20210411230704 54 1 0.0 3.0 0.00 0.00 0.00 49 1025.6
20210411230218 53 334 0.0 3.0 0.00 0.00 0.00 46 1025.6
20210411225922 53 323 0.0 3.0 0.00 0.00 0.00 47 1025.6
20210411225541 53 4 0.0 0.0 0.00 0.00 0.00 48 1025.6
20210411224705 53 0 0.0 0.0 0.00 0.00 0.00 48 1025.7
20210411224225 53 298 0.0 0.0 0.00 0.00 0.00 49 1025.7
20210411223705 54 203 0.0 0.0 0.00 0.00 0.00 47 1025.8
20210411223326 54 0 0.0 0.0 0.00 0.00 0.00 49 1025.9
20210411223116 53 58 0.0 0.0 0.00 0.00 0.00 52 1025.9
20210411222857 53 221 0.0 0.0 0.00 0.00 0.00 49 1026.0
20210411221741 53 44 0.0 0.0 0.00 0.00 0.00 48 1026.0
20210411221206 53 6 0.0 0.0 0.00 0.00 0.00 47 1026.1
20210411220710 53 18 0.0 0.0 0.00 0.00 0.00 49 1026.1
20210411220521 53 348 0.0 0.0 0.00 0.00 0.00 48 1026.2
20210411220000 53 320 0.0 0.0 0.00 0.00 0.00 49 1026.3
20210411215650 53 42 0.0 0.0 0.00 0.00 0.00 51 1026.3
20210411214721 53 4 0.0 0.0 0.00 0.00 0.00 52 1026.3
20210411214204 53 0 0.0 0.0 0.00 0.00 0.00 49 1026.3
20210411213704 53 1 0.0 0.0 0.00 0.00 0.00 48 1026.4
20210411213309 52 305 0.0 0.0 0.00 0.00 0.00 48 1026.4
20210411213024 52 351 0.0 0.0 0.00 0.00 0.00 49 1026.4
20210411212617 53 0 0.0 0.0 0.00 0.00 0.00 54 1026.4
20210411211705 52 0 0.0 0.0 0.00 0.00 0.00 52 1026.4
20210411211216 52 0 0.0 0.0 0.00 0.00 0.00 51 1026.4
20210411210710 52 350 0.0 0.0 0.00 0.00 0.00 51 1026.4
20210411210209 52 31 0.0 0.0 0.00 0.00 0.00 55 1026.4
20210411205934 51 338 0.0 0.0 0.00 0.00 0.00 52 1026.5
20210411205743 51 0 0.0 2.0 0.00 0.00 0.00 50 1026.5
20210411204713 51 312 0.0 6.0 0.00 0.00 0.00 52 1026.5
20210411204207 51 319 0.0 6.0 0.00 0.00 0.00 50 1026.6
20210411203706 52 357 0.0 6.0 0.00 0.00 0.00 51 1026.6
20210411203449 52 0 0.0 3.0 0.00 0.00 0.00 51 1026.6
20210411203124 52 355 0.0 3.0 0.00 0.00 0.00 51 1026.7
20210411202920 51 0 0.0 3.0 0.00 0.00 0.00 55 1026.8
20210411201924 50 0 0.0 0.0 0.00 0.00 0.00 51 1026.7
20210411201216 51 0 0.0 0.0 0.00 0.00 0.00 52 1026.9
20210411200709 51 338 0.0 0.0 0.00 0.00 0.00 50 1026.8
20210411200219 50 0 0.0 0.0 0.00 0.00 0.00 53 1026.9
20210411195931 50 351 0.0 0.0 0.00 0.00 0.00 53 1026.9
20210411195701 50 314 0.0 0.0 0.00 0.00 0.00 52 1027.0
20210411194715 50 14 0.0 0.0 0.00 0.00 0.00 53 1027.0
20210411194213 50 0 0.0 0.0 0.00 0.00 0.00 53 1027.0
20210411193704 51 344 0.0 0.0 0.00 0.00 0.00 53 1026.9
20210411193342 50 4 0.0 0.0 0.00 0.00 0.00 56 1027.0
20210411193041 49 334 0.0 0.0 0.00 0.00 0.00 58 1027.1
20210411192901 47 11 0.0 0.0 0.00 0.00 0.00 57 1027.1
20210411191834 48 341 0.0 0.0 0.00 0.00 0.00 56 1027.1